Theta_e
313 310 312 305 308 313 315 316 316 316 315 316 316 317 319 318 313 313 316 318 325 327 324 326 328 328 327 326 326 326 326 328 328 327 327 326 326 325 325 325 324 325 324 324
317 315 312 309 308 310 314 316 317 316 316 317 317 318 316 316 315 315 318 316 324 325 323 326 327 326 325 325 325 324 325 325 326 325 325 325 326 325 324 324 323 323 323 322
319 318 317 313 312 312 311 312 316 317 316 317 318 318 316 315 315 314 317 318 320 326 325 326 327 326 325 325 324 324 324 325 324 324 324 323 323 322 323 322 321 322 322 321
319 318 318 318 316 316 320 311 311 315 317 320 318 321 318 316 316 316 315 315 317 326 325 326 327 325 324 324 325 324 323 322 322 321 322 322 321 321 321 321 321 321 321 322
317 319 320 319 317 317 318 320 319 319 318 317 319 318 318 315 317 316 315 312 316 325 325 326 327 326 325 324 324 323 323 322 321 322 321 321 322 321 321 321 321 321 322 320
315 317 318 317 318 318 320 320 320 317 317 321 320 320 319 316 318 318 317 315 317 325 326 324 325 326 324 324 324 323 322 322 321 321 322 321 321 321 320 320 319 320 320 319
308 314 316 318 320 318 319 321 323 325 322 324 321 321 321 318 317 318 318 317 316 326 326 325 324 325 324 323 323 322 322 322 321 321 321 321 320 320 319 320 320 320 319 318
308 312 311 318 318 320 319 322 324 330 328 324 320 321 319 318 318 317 317 315 317 326 326 326 324 324 325 324 322 322 322 322 322 322 321 321 320 319 319 319 319 319 319 319
311 315 312 315 316 316 319 324 320 322 322 326 325 322 321 319 317 317 316 318 322 326 326 327 325 324 324 323 322 322 322 322 322 322 321 320 320 319 318 318 319 319 320 319
310 314 312 313 315 316 318 319 324 326 329 329 325 323 326 321 320 319 318 317 321 327 327 327 326 325 324 324 323 322 322 322 322 322 322 321 320 320 319 318 318 318 318 319
315 313 312 313 315 318 319 322 321 322 325 329 328 330 326 323 318 319 320 320 320 320 322 325 326 326 326 325 323 323 322 321 322 322 322 322 321 321 320 319 318 317 318 318
312 316 319 315 312 313 318 321 322 326 326 324 326 328 326 324 320 316 320 320 319 319 319 320 322 324 326 326 324 323 322 321 321 322 322 322 322 322 322 321 319 318 316 317
309 314 319 316 315 313 317 318 321 322 322 327 329 328 326 325 324 322 317 319 319 319 318 318 318 319 319 320 326 325 324 323 322 321 321 321 322 322 322 321 321 320 319 317
309 313 318 321 322 319 322 321 319 322 325 324 324 326 327 325 324 321 318 318 319 318 317 317 317 318 317 316 316 316 318 319 322 323 321 320 321 321 321 321 321 321 320 320
311 312 317 316 316 315 318 321 320 322 321 324 323 324 327 326 321 321 320 319 318 316 316 317 316 313 311 309 309 309 310 312 315 323 323 322 321 321 321 321 321 321 321 321
311 312 314 315 314 312 315 320 320 321 323 320 321 324 324 323 322 320 319 317 316 315 315 314 312 309 306 305 304 305 306 308 312 311 311 319 323 322 322 321 320 320 321 321
312 313 311 314 314 313 318 317 319 320 322 323 326 323 323 321 320 318 317 315 314 312 312 311 307 303 300 299 300 301 302 304 304 304 304 306 308 314 321 322 322 321 320 321
309 309 310 312 312 314 316 311 313 321 321 320 320 321 322 320 319 318 313 311 310 309 308 305 302 299 297 296 296 297 298 298 298 299 300 302 304 308 307 309 314 322 322 322
308 308 308 311 313 312 310 315 315 319 318 317 317 320 322 317 313 311 308 307 306 304 303 300 297 295 294 293 294 295 295 294 294 296 297 298 299 300 301 303 304 307 310 319
307 306 306 308 313 313 314 313 313 314 322 316 317 318 317 315 314 309 304 301 299 298 298 296 294 292 291 290 291 293 292 292 293 294 294 294 293 294 296 297 298 302 303 306
306 306 309 308 309 310 312 312 313 315 320 314 313 314 314 313 309 303 299 297 295 294 294 293 291 289 288 288 290 290 290 291 292 291 290 289 289 289 291 291 293 296 299 301
309 309 307 308 309 310 311 314 314 315 313 312 311 310 307 304 301 299 296 294 293 291 290 290 289 287 287 287 288 288 289 289 289 288 287 286 286 286 287 288 289 292 294 295
313 311 310 308 307 310 308 310 310 312 311 310 309 307 304 302 299 296 294 292 290 288 287 287 286 286 285 286 286 287 287 287 286 285 285 285 284 284 285 285 286 287 290 290
312 311 312 312 311 309 307 306 305 304 303 302 303 303 301 299 296 294 292 289 287 286 285 285 285 285 284 284 284 285 286 285 284 284 283 283 283 283 283 284 285 285 286 287
310 308 310 313 309 308 306 305 304 301 300 298 296 297 296 294 292 290 288 286 285 284 283 283 284 284 283 283 283 284 284 285 284 283 282 282 282 282 282 282 283 284 284 285
305 304 306 309 307 304 306 303 302 299 296 295 294 292 291 290 289 287 286 284 283 282 281 281 282 282 281 281 282 282 283 282 282 281 281 280 280 280 280 281 280 280 280 282
Wind_Speed
1 3 11 10 7 6 7 9 9 13 8 9 15 18 10 15 9 10 9 11 16 18 11 18 25 31 32 32 30 28 27 26 27 27 25 22 25 29 33 36 33 41 35 37
1 9 9 9 9 10 9 9 14 16 10 6 16 10 14 14 12 14 13 9 15 10 10 13 21 26 29 31 32 29 28 27 28 27 24 18 22 26 30 37 33 37 40 37
5 3 6 12 12 11 8 10 12 14 15 13 11 9 15 11 6 6 9 9 13 19 18 15 16 25 27 28 33 33 31 29 28 27 23 17 20 17 23 28 32 36 36 37
5 3 7 8 10 7 9 12 16 19 11 5 3 6 19 12 9 5 7 9 11 17 20 18 17 20 26 27 33 33 30 29 26 25 23 24 20 15 18 25 31 35 36 28
4 2 5 9 14 10 12 7 5 5 5 3 6 6 13 6 8 11 8 10 14 21 22 20 20 26 27 30 31 34 31 29 27 28 27 24 18 19 20 23 28 31 35 27
7 3 4 8 11 8 10 7 5 5 4 4 9 6 8 5 11 5 7 5 13 18 21 20 18 22 24 27 29 33 33 31 30 29 30 28 24 19 22 22 25 32 32 30
3 14 6 4 4 9 8 2 1 3 3 5 5 7 13 13 11 11 11 14 14 20 19 17 17 16 23 27 27 29 32 29 33 30 30 27 28 28 27 28 26 31 30 29
4 6 11 9 9 9 11 6 4 5 1 2 12 6 5 10 13 11 12 9 12 18 19 19 19 17 24 28 28 28 29 28 32 32 31 30 31 32 29 31 29 30 31 33
2 4 2 11 7 9 5 6 3 3 2 1 4 5 7 11 12 8 9 5 14 16 18 19 17 16 23 28 32 32 31 29 32 31 31 33 31 30 30 33 31 32 32 29
3 4 5 6 6 5 7 4 3 3 3 4 4 2 2 16 13 10 8 7 4 12 16 15 15 15 23 27 27 28 32 31 32 32 30 30 33 32 32 33 34 33 36 34
3 3 6 4 8 11 4 4 3 1 2 1 1 2 12 13 15 15 17 17 15 12 8 6 5 5 6 13 22 26 27 26 28 32 30 30 30 29 30 32 37 38 37 38
1 1 4 6 9 4 8 8 7 2 5 4 2 3 9 9 13 13 15 14 16 19 18 16 12 13 14 12 10 8 10 18 27 30 30 31 31 32 30 31 31 36 36 39
2 2 3 6 3 3 4 9 13 5 2 5 2 2 1 12 14 16 9 11 15 17 18 18 19 16 18 21 8 11 10 12 14 17 23 26 29 31 33 33 31 34 37 38
4 1 2 3 3 3 6 6 8 9 3 2 5 3 7 5 14 11 5 9 14 16 16 15 15 15 20 23 23 23 17 9 13 25 27 26 30 33 34 34 34 35 36 35
3 1 2 7 12 12 12 8 12 16 12 6 4 11 5 6 5 10 11 10 13 13 19 16 14 13 17 20 21 21 21 22 25 9 24 27 29 29 29 30 32 35 36 37
4 1 3 3 5 8 7 13 12 13 16 14 13 10 3 8 2 5 8 12 13 15 18 17 14 14 13 19 18 18 21 23 23 23 23 9 24 29 33 32 32 34 37 38
2 1 2 3 7 9 5 3 10 8 7 11 5 4 9 5 6 5 2 11 15 14 14 14 14 14 18 19 16 18 20 21 24 24 24 24 22 19 16 28 31 35 38 36
3 2 2 3 5 3 4 13 11 13 9 8 7 6 12 10 11 2 7 14 13 13 15 15 12 16 22 22 21 16 18 20 20 21 23 24 25 20 20 19 15 27 37 37
9 4 2 3 3 6 10 4 5 4 3 7 8 10 20 11 20 14 13 15 14 14 12 16 18 19 20 22 22 22 23 21 19 20 21 21 22 24 25 23 22 25 26 26
6 3 3 2 2 4 3 6 14 6 2 10 7 18 21 17 8 7 10 13 15 18 17 17 18 17 17 21 21 21 23 24 24 25 23 21 20 19 19 22 28 26 26 30
3 2 10 4 3 6 6 2 6 2 2 5 14 11 8 7 9 13 11 13 18 17 19 15 15 16 18 19 18 20 20 22 22 22 22 22 22 21 19 21 20 22 25 27
5 4 3 3 3 8 11 7 5 4 3 9 12 15 17 16 15 13 12 13 13 14 15 13 13 15 16 17 17 17 18 17 17 17 20 25 27 25 22 22 24 19 17 13
3 4 2 6 4 6 13 11 12 10 11 8 9 12 13 14 13 12 12 12 11 13 13 14 14 15 17 19 19 19 19 17 16 17 19 20 24 29 26 27 27 22 19 16
4 1 3 3 6 9 12 15 17 14 14 14 12 12 12 14 12 12 11 10 9 14 15 16 16 17 18 19 20 19 19 18 18 18 20 21 24 28 33 30 30 26 21 18
2 1 3 2 10 11 12 12 14 13 14 16 17 15 12 14 14 12 12 11 14 16 18 19 18 18 18 18 20 21 21 16 17 18 18 19 20 23 26 36 39 34 39 27
4 3 2 2 5 9 8 9 9 12 13 14 14 14 14 14 13 13 12 16 16 16 17 18 18 19 20 21 23 23 22 22 20 19 20 21 21 21 22 22 29 40 44 44
Wind_Direction
285 145 220 217 232 216 262 267 278 286 291 322 285 281 268 278 231 238 214 185 188 192 174 159 156 161 164 165 165 168 177 190 189 187 176 177 183 198 196 192 189 187 183 187
330 244 239 234 256 253 244 261 273 286 292 262 288 280 287 283 254 214 198 191 190 159 157 153 157 160 165 165 167 170 176 187 192 190 190 191 191 197 202 200 191 188 194 194
202 242 266 230 244 253 255 254 262 266 295 288 295 297 293 281 250 203 214 205 187 172 170 165 168 170 165 168 169 170 176 184 194 198 197 201 203 208 197 200 192 188 194 200
235 264 231 257 237 214 264 251 260 262 263 271 35 290 285 279 287 298 229 213 176 182 181 170 168 173 175 173 172 172 173 183 192 200 202 201 200 189 200 193 193 194 198 200
244 218 173 227 243 243 255 319 313 340 320 291 276 259 273 249 284 274 266 224 196 182 178 177 178 177 174 172 172 174 173 179 186 187 192 198 193 192 187 185 185 184 191 193
237 202 208 221 259 266 301 324 264 218 178 242 244 223 273 237 242 267 260 234 196 183 181 179 166 162 165 172 172 175 172 175 182 186 184 186 187 187 170 172 171 184 194 195
277 237 193 174 222 247 241 312 252 255 209 227 227 225 239 266 256 245 265 279 202 181 167 162 158 162 167 173 173 175 174 172 181 183 189 184 182 186 185 181 177 182 193 197
196 307 192 173 204 191 217 193 164 200 267 302 209 236 248 239 254 246 252 273 176 168 165 168 172 167 170 173 176 177 177 174 180 182 190 193 195 188 187 189 187 187 194 199
253 265 97 169 181 180 200 199 268 6 225 260 268 299 312 337 268 262 266 118 161 164 167 168 173 169 166 175 182 182 180 179 181 185 186 198 201 197 196 197 199 198 202 205
280 290 249 201 170 211 186 122 145 178 210 205 248 284 325 350 356 42 34 71 89 165 167 168 168 174 178 181 182 184 185 184 183 186 189 193 200 208 209 207 210 210 212 212
24 184 287 0 194 195 235 159 160 235 219 243 288 134 1 9 17 57 68 67 64 71 79 113 108 125 163 169 178 183 186 184 186 190 190 193 198 203 210 215 219 219 218 218
226 251 263 241 252 180 161 185 174 182 179 207 274 272 321 339 27 35 56 59 61 67 66 63 71 72 102 127 152 192 209 199 193 194 194 197 199 203 205 210 216 222 219 222
287 323 320 319 302 124 160 204 204 181 59 221 177 180 28 353 3 7 44 63 70 71 64 67 71 70 66 59 135 175 194 223 231 218 209 205 206 208 209 211 213 219 223 224
102 196 271 273 339 285 293 156 220 192 188 199 226 196 127 68 358 350 74 59 81 84 77 70 68 64 58 50 44 47 44 12 277 227 221 218 218 217 218 218 216 217 220 222
86 190 24 291 280 279 293 223 259 232 223 208 240 231 162 135 118 302 318 91 84 81 81 69 64 59 55 48 37 27 22 11 12 222 216 223 229 231 229 229 227 225 221 221
359 277 17 285 351 326 287 239 218 246 237 229 244 248 72 99 195 265 318 97 80 61 68 69 56 54 49 42 31 26 19 13 18 22 18 346 240 233 234 234 231 230 230 230
124 279 37 279 330 303 285 208 244 200 229 229 254 224 121 120 166 281 77 90 88 77 71 66 51 42 42 44 29 28 21 19 18 13 6 3 360 5 268 241 231 232 234 233
182 143 100 268 320 276 278 318 261 191 180 204 195 232 186 173 155 203 108 88 72 67 59 59 54 40 27 22 23 33 34 26 19 15 5 356 351 347 342 333 319 253 239 233
199 157 181 215 214 294 300 356 343 183 36 296 221 193 148 147 92 63 62 69 73 68 66 69 53 39 31 21 13 19 22 23 22 13 4 355 349 340 336 331 324 309 298 271
181 160 152 168 231 256 270 326 4 360 89 327 145 173 163 145 107 102 82 75 70 65 63 66 53 40 31 18 18 25 19 12 8 1 357 356 349 341 331 325 321 313 307 299
143 175 211 211 249 285 277 298 32 25 133 356 87 100 100 90 98 115 93 74 70 66 56 58 56 46 31 22 26 30 19 12 359 354 358 3 0 349 340 333 330 321 324 321
173 163 179 175 221 266 334 311 141 138 42 94 82 98 100 97 97 95 84 70 63 61 61 60 58 50 36 34 34 33 26 9 8 9 10 12 9 7 360 353 353 355 358 15
220 182 233 173 206 76 37 51 40 95 113 81 94 97 108 105 98 89 81 75 66 62 57 57 56 52 42 38 36 35 21 22 24 29 29 28 27 24 20 16 7 5 22 37
222 186 232 330 67 79 71 57 55 58 72 63 64 87 101 102 95 90 83 64 61 52 47 48 51 48 42 36 36 36 32 36 43 43 39 38 38 37 36 36 32 27 24 40
1 30 332 136 110 89 69 66 59 53 67 66 59 56 75 92 81 80 70 57 48 47 39 39 41 42 37 35 38 38 40 47 50 48 44 43 43 44 47 49 45 45 45 51
16 324 333 27 44 97 68 70 81 72 59 64 65 54 51 64 71 71 64 58 52 47 42 43 40 42 35 35 37 36 39 50 55 54 47 46 47 47 49 51 52 48 48 51